date,batt_volt,AirTemp_C,Solar_kW,RH,Manual_BP,StationID,WS_ms,PTemp,WS_15min_max,Prog_Sig,Solar_Raw,Bar_mbar,Solar_MJ,Max_WS_2min,Pressure_Raw,Rain_mm,WD_15min_ave,Max_AirTemp_1min,WindDir,WS_15min_med,WS_15min_ave,Elevation_Correction
2021-11-01T00:05:11Z,13.25159,14.2027,0.0,98.10689,0,1156,1.9208,14.66005,5.0372,43690,0.0,1001.947,0.0,4.253,1000.146,0,97.0872576646,14.34,101.9102,3.5672,3.54226508876,1.80078
2021-11-01T00:20:11Z,13.25176,14.271,0.0,98.17562,0,1156,2.8616,14.61261,4.2924,43690,0.0,1001.947,0.0,3.175,1000.146,0,97.7653876464,14.34,98.4717,2.9204,2.89221775089,1.80078
2021-11-01T00:35:08Z,13.25191,14.23512,0.0,98.172,0,1156,2.8028,14.51546,3.3124,43690,0.0,1001.947,0.0,2.783,1000.146,0,100.841699704,14.34,104.8659,2.3128,2.20818934793,1.80078
2021-11-01T00:50:08Z,13.2573,14.06664,0.0,98.17364,0,1156,0.784,14.39572,2.8028,43690,0.0,1001.947,0.0,1.862,1000.146,0,97.2523913453,14.1,104.9398,1.6464,1.61172307456,1.80078
2021-11-01T01:05:09Z,13.2639,13.76856,0.0,98.1183,0,1156,0.9015999,14.13365,2.4892,43690,0.0,1002.114,0.0,2.489,1000.313,0,100.975429884,14.11,138.4379,0.8035999,0.81283820828,1.80078
2021-11-01T01:20:11Z,13.26687,14.31998,0.0,98.13515,0,1156,3.1164,13.99131,3.9592,43690,0.0,1002.114,0.0,3.587,1000.313,0,137.741084033,14.35,137.4272,1.6856,1.67539407988,1.80078
2021-11-01T01:35:13Z,13.26146,14.32056,0.0,97.72957,0,1156,1.4308,14.06135,3.7828,43690,0.0,1002.114,0.0,2.666,1000.313,0,139.979358582,14.32,133.0498,1.862,1.8365666631,1.80078
2021-11-01T01:50:10Z,13.26126,14.38827,0.0,97.39058,0,1156,3.9788,14.01391,4.9196,43690,0.0,1002.114,0.0,4.214,1000.313,0,140.976092912,14.46,150.4688,2.2736,2.22774999821,1.80078
2021-11-01T02:05:13Z,13.25594,14.62515,0.0,94.98405,0,1156,5.8016,14.0862,5.8996,43690,0.0,1001.766,0.0,5.9,999.9652,0,145.882732026,14.69,150.2032,4.7628,4.73311005917,1.80078
2021-11-01T02:20:14Z,13.26122,14.72649,0.0,88.71451,0,1156,5.8604,14.03876,6.8992,43690,0.0,1001.766,0.0,6.115,999.9652,0,148.505654392,14.76,148.1092,5.6056,5.56350057988,1.80078
2021-11-01T02:35:10Z,13.2669,14.86271,0.0,87.93621,0,1156,3.0576,13.89643,5.9388,43690,0.0,1001.766,0.0,5.41,999.9652,0,144.468200625,14.9,141.3743,4.9784,4.67226666667,1.80078
2021-11-01T02:50:12Z,13.26698,14.82887,0.0,86.20806,0,1156,6.1544,13.82413,7.5264,43690,0.0,1001.766,0.0,7.193,999.9652,0,143.060786443,14.9,145.3924,5.4096,5.18831714793,1.80078
2021-11-01T03:05:14Z,13.26698,14.82887,0.0,84.17485,0,1156,7.310799,13.77668,9.7804,43690,0.0,1001.686,0.0,8.639999,999.8848,0,145.171783686,14.86,145.6811,6.6248,6.96971349112,1.80078
2021-11-01T03:20:14Z,13.26698,14.62555,0.0,84.0393,0,1156,6.174,13.75409,9.8784,43690,0.0,1001.686,0.0,6.546,999.8848,0,144.884484932,14.73,147.3172,7.0364,6.976788,1.80078
2021-11-01T03:35:15Z,13.2725,14.52389,0.0,85.63199,0,1156,5.0764,13.72924,6.2916,43690,0.0,1001.686,0.0,6.272,999.8848,0,145.988742584,14.52,137.982,4.6452,4.68300828402,1.80078
2021-11-01T03:50:15Z,13.26146,14.32057,0.0,86.1064,0,1156,3.43,13.70665,6.0564,43690,0.0,1001.686,0.0,4.038,999.8848,0,145.816304549,14.42,142.3849,4.4884,4.42333727811,1.80078
2021-11-01T04:05:12Z,13.2725,14.28668,0.0,86.27583,0,1156,4.41,13.72924,5.1744,43690,0.0,1001.767,0.0,4.155,999.9661,0,143.826921899,14.35,147.269,3.4202,3.37843333333,1.80078
2021-11-01T04:20:13Z,13.2725,14.04947,0.0,87.90241,0,1156,3.9984,13.61176,5.2136,43690,0.0,1001.767,0.0,4.959,999.9661,0,152.372569605,14.12,160.7425,3.9984,4.00906982249,1.80078
2021-11-01T04:35:14Z,13.2725,13.88004,0.0,89.4612,0,1156,6.0956,13.54172,7.0756,43690,0.0,1001.767,0.0,7.056,999.9661,0,159.483633505,13.95,167.5994,5.292,5.30313371598,1.80078
2021-11-01T04:50:14Z,13.2725,13.84615,0.0,90.00338,0,1156,6.487599,13.63662,7.1736,43690,0.0,1001.767,0.0,7.076,999.9661,0,159.533091931,13.88,157.0854,6.1936,6.15034076331,1.80078
2021-11-01T05:05:15Z,13.26698,13.71061,0.0,90.27447,0,1156,4.704,13.65921,6.8012,43690,0.0,1001.035,0.0,5.566,999.2342,0,158.855293944,13.74,159.2508,5.194,5.20385798225,1.80078
2021-11-01T05:20:15Z,13.2725,13.74449,0.0,91.05388,0,1156,4.5472,13.63662,6.1936,43690,0.0,1001.035,0.0,5.174,999.2342,0,161.669070612,13.74,156.2192,5.1352,5.06758579882,1.80078
2021-11-01T05:35:14Z,13.2725,13.71061,0.0,90.91833,0,1156,4.9,13.65921,6.174,43690,0.0,1001.035,0.0,5.762,999.2342,0,160.403142958,13.74,157.4703,4.9588,4.95717633136,1.80078
2021-11-01T05:50:13Z,13.2725,13.94781,0.0,89.59674,0,1156,4.5864,13.72924,6.1936,43690,0.0,1001.035,0.0,5.233,999.2342,0,153.578264683,13.98,152.8028,4.9,4.88944615385,1.80078
2021-11-01T06:05:18Z,13.26698,13.81226,0.0,89.66451,0,1156,4.214,13.82413,6.0368,43690,0.0,1000.954,0.0,5.174,999.1528,0,153.372196417,13.91,154.4388,4.6354,4.63839764706,1.80078
2021-11-01T06:20:18Z,13.26698,13.84615,0.0,89.4612,0,1156,4.214,13.87158,5.39,43690,0.0,1000.954,0.0,4.743,999.1528,0,152.916999197,13.85,151.5517,4.2532,4.2450816568,1.80078
2021-11-01T06:35:17Z,13.26698,13.74449,0.0,89.25787,0,1156,3.92,13.87158,5.1156,43690,0.0,1000.954,0.0,3.998,999.1528,0,150.389601307,13.88,147.5818,3.9592,3.90434319527,1.80078
2021-11-01T06:50:16Z,13.2725,13.64283,0.0,90.00338,0,1156,3.4104,13.70665,4.1748,43690,0.0,1000.954,0.0,3.861,999.1528,0,151.060671456,13.74,149.7953,3.43,3.3397704142,1.80078
2021-11-01T07:05:15Z,13.2725,13.88004,0.0,89.83395,0,1156,5.1156,13.56432,5.1744,43690,0.0,1000.791,0.0,5.018,998.9902,0,150.867464528,13.91,152.0088,3.9592,3.97961183432,1.80078
2021-11-01T07:20:14Z,13.27802,13.74449,0.0,89.63063,0,1156,4.0572,13.46943,6.2916,43690,0.0,1000.791,0.0,4.92,998.9902,0,151.711457559,13.78,156.9891,4.5864,4.62386035503,1.80078
2021-11-01T07:35:15Z,13.27802,13.77838,0.0,90.03727,0,1156,5.7624,13.44684,5.7624,43690,0.0,1000.791,0.0,5.606,998.9902,0,154.402941908,13.78,150.878,4.3316,4.37126390533,1.80078
2021-11-01T07:50:15Z,13.27802,13.54117,0.0,89.35954,0,1156,3.8612,13.46943,5.9976,43690,0.0,1000.791,0.0,5.488,998.9902,0,153.584475809,13.74,157.7591,4.7824,4.70017278107,1.80078
2021-11-01T08:05:17Z,13.27802,13.54117,0.0,89.4612,0,1156,4.3708,13.3768,5.4488,43690,0.0,1001.767,0.0,5.076,999.9661,0,156.460593255,13.58,155.4253,4.312,4.33821065089,1.80078
2021-11-01T08:20:17Z,13.27802,13.54117,0.0,89.63063,0,1156,3.822,13.3045,5.3116,43690,0.0,1001.767,0.0,4.43,999.9661,0,155.911207575,13.61,151.8644,4.2336,4.25192426036,1.80078
2021-11-01T08:35:18Z,13.28354,13.64283,0.0,89.66451,0,1156,4.4296,13.28191,4.9196,43690,0.0,1001.767,0.0,4.077,999.9661,0,153.445665425,13.68,146.6194,4.1356,4.15357633136,1.80078
2021-11-01T08:50:16Z,13.27802,13.67672,0.0,88.37682,0,1156,5.2332,13.35195,5.8604,43690,0.0,1001.767,0.0,5.743,999.9661,0,156.157950161,13.71,159.6117,4.9784,4.90556686391,1.80078
2021-11-01T09:05:21Z,13.2725,13.64283,0.0,87.80074,0,1156,6.1544,13.49428,7.3892,43690,0.0,1001.523,0.0,6.821,999.7221,0,157.416483861,13.68,156.5561,5.684,5.63211763529,1.80078
2021-11-01T09:20:19Z,13.2725,13.64283,0.0,86.54693,0,1156,5.978,13.61176,8.4672,43690,0.0,1001.523,0.0,8.47,999.7221,0,157.23849502,13.71,155.5696,6.9972,6.99673588757,1.80078
2021-11-01T09:35:18Z,13.2725,13.60894,0.0,87.46187,0,1156,5.6644,13.70665,8.4672,43690,0.0,1001.523,0.0,6.958,999.7221,0,158.049384112,13.58,156.4117,6.6248,6.67571350888,1.80078
2021-11-01T09:50:20Z,13.26698,13.54117,0.0,87.49576,0,1156,7.6048,13.75409,7.996799,43690,0.0,1001.523,0.0,7.997,999.7221,0,158.097033246,13.51,154.7516,6.0074,5.99114348824,1.80078
2021-11-01T10:05:19Z,13.2725,13.37174,0.0,87.69908,0,1156,6.4484,13.77668,8.192799,43690,0.0,1002.418,0.0,8.189999,1000.617,0,157.175622918,13.44,159.0342,6.762,6.7144495858,1.80078
2021-11-01T10:20:19Z,13.2725,13.37174,0.0,88.44458,0,1156,6.9972,13.75409,8.33,43690,0.0,1002.418,0.0,8.309999,1000.617,0,159.07645573,13.44,162.0898,7.0756,6.96171102367,1.80078
2021-11-01T10:35:19Z,13.2725,13.37174,0.0,88.61402,0,1156,7.6832,13.72924,8.878799,43690,0.0,1002.418,0.0,7.468001,1000.617,0,162.383802203,13.44,159.7079,7.252,7.2414459645,1.80078
2021-11-01T10:50:19Z,13.2725,13.30396,0.001928706,87.97018,0,1156,8.859199,13.70665,9.702,43690,0.1350094,1002.418,9.643531e-06,9.25,1000.617,0,163.957583514,13.41,167.0942,8.3496,8.30390504142,1.80078
2021-11-01T11:05:20Z,13.2725,13.27008,0.01060795,88.10572,0,1156,7.643999,13.61176,10.7996,43690,0.7425568,1002.418,5.303977e-05,10.33,1000.617,0,166.413449544,13.3,169.1152,8.6632,8.73069794083,1.80078
2021-11-01T11:20:20Z,13.27802,13.2023,0.02121684,88.71568,0,1156,9.995999,13.42424,10.878,43690,1.485179,1002.418,0.0001060842,10.78,1000.617,0,166.445738897,13.2,169.9573,9.2316,9.20005421893,1.80078
2021-11-01T11:35:21Z,13.28354,13.2023,0.04870233,89.80006,0,1156,10.3488,13.3045,11.1328,43690,3.409163,1002.418,0.0002435117,9.429999,1000.617,0,169.663010965,13.27,163.5334,8.9572,8.92461044379,1.80078
2021-11-01T11:50:21Z,13.28354,13.27008,0.04436252,89.52897,0,1156,9.309999,13.32936,11.8188,43690,3.105376,1002.418,0.0002218126,10.66,1000.617,0,168.114464764,13.34,168.2491,9.7804,9.82852998817,1.80078
2021-11-01T12:05:21Z,13.28354,13.27008,0.06750818,90.03727,0,1156,9.937199,13.32936,11.858,43690,4.725573,1003.556,0.0003375409,10.98,1001.755,0,169.765439864,13.34,176.309,10.094,10.0847831964,1.80078
2021-11-01T12:20:23Z,13.27802,13.43951,0.1099419,89.52897,0,1156,10.0548,13.42424,11.9168,43690,7.695933,1003.556,0.0005497095,10.13,1001.755,0,167.563590717,13.51,175.5632,9.760799,9.71777259763,1.80078
2021-11-01T12:35:20Z,13.2725,13.43951,0.09258265,89.80006,0,1156,9.4276,13.6818,12.7988,43690,6.480785,1003.556,0.0004629132,11.23,1001.755,0,167.63222488,13.58,168.634,10.2508,10.1195498929,1.80078
2021-11-01T12:50:22Z,13.26146,13.57506,0.1422325,90.61335,0,1156,8.3888,13.91902,11.5836,43690,9.956272,1003.556,0.0007111622,10.29,1001.755,0,167.028626026,13.61,164.7604,9.898,9.73261762722,1.80078
2021-11-01T13:05:22Z,13.25042,13.77537,0.3172368,90.10001,0,1156,8.6044,14.34828,10.976,43690,22.20658,1004.613,0.001586184,10.45,1002.813,0,166.905402144,13.95,162.9709,9.3492,9.33737016568,1.80078
2021-11-01T13:20:24Z,13.22528,14.10124,0.3494852,87.67315,0,1156,8.643599,15.26327,10.9172,43690,24.46396,1004.613,0.001747426,10.49,1002.813,0,165.447264548,14.17,166.9967,9.4864,9.42365661538,1.80078
2021-11-01T13:35:23Z,13.20184,14.43774,0.4521525,86.89036,0,1156,9.212,16.11727,11.3288,43690,31.65068,1004.613,0.002260762,11.33,1002.813,0,165.684404325,14.44,164.2719,9.7117995,9.57518316667,1.80078
2021-11-01T13:50:25Z,13.1849,14.87714,0.5736262,84.44982,0,1156,8.918,17.11134,11.8384,43690,40.15383,1004.613,0.002868131,10.9,1002.813,0,164.008663185,14.95,165.9044,9.9764,9.92351463314,1.80078
2021-11-01T14:05:26Z,13.16458,14.75911,0.495462,84.18748,0,1156,10.6232,18.04667,12.7008,43690,34.68234,1004.307,0.00247731,11.88,1002.507,0,164.096656578,14.79,162.0077,10.3684,10.319457858,1.80078
2021-11-01T14:20:26Z,13.15322,14.75792,0.4630898,83.77928,0,1156,10.3684,18.66119,11.3876,43690,32.41629,1004.307,0.002315449,10.96,1002.507,0,162.845219639,14.76,163.6391,9.5452,9.57604946746,1.80078
2021-11-01T14:35:26Z,13.15321,14.85949,0.4809126,82.56015,0,1156,8.3692,18.86904,11.368,43690,33.66388,1004.307,0.002404563,10.62,1002.507,0,163.354301804,14.99,164.9374,9.721599,9.48779155621,1.80078
2021-11-01T14:50:25Z,13.14219,14.75782,0.4992238,82.15366,0,1156,10.5644,18.97297,11.9952,43690,34.94566,1004.307,0.002496119,11.37,1002.507,0,162.978673352,14.86,157.3395,10.1528,10.0608306272,1.80078
2021-11-01T15:05:24Z,13.1469,15.09142,0.5156075,81.70595,0,1156,7.2324,19.12885,11.1328,43690,36.09252,1004.581,0.002578038,9.639999,1002.78,0,160.513929312,15.09,156.2913,8.937599,9.0135642426,1.80078
2021-11-01T15:20:27Z,13.13837,14.9792,0.5262088,81.08077,0,1156,9.2708,19.23278,12.1128,43690,36.83462,1004.581,0.002631044,11.76,1002.78,0,161.561190286,15.08,165.6834,9.564799,9.48547195858,1.80078
2021-11-01T15:35:28Z,13.13775,14.97649,0.5377738,78.94408,0,1156,11.6032,19.3367,12.2304,43690,37.64417,1004.581,0.002688869,10.98,1002.78,0,158.419923138,15.11,162.2382,10.1136,10.1228778935,1.80078
2021-11-01T15:50:27Z,13.13773,15.04402,0.5416105,78.40218,0,1156,10.9368,19.44289,12.9752,43690,37.91274,1004.581,0.002708053,12.98,1002.78,0,159.154285823,15.04,155.7482,10.2508,10.2260969349,1.80078
2021-11-01T16:05:27Z,13.13773,14.8409,0.5575301,77.89439,0,1156,11.3876,19.46774,13.4652,43690,39.02711,1004.509,0.002787651,12.37,1002.708,0,158.372719384,14.91,154.4983,10.9564,10.8792756627,1.80078
2021-11-01T16:20:28Z,13.14876,14.36697,0.291535,78.63914,0,1156,10.584,19.28474,12.6224,43690,20.40745,1004.509,0.001457675,10.66,1002.708,0,157.760170785,14.47,162.3098,10.192,10.2154271361,1.80078
2021-11-01T16:35:24Z,13.15788,14.24479,0.2582855,78.89534,0,1156,7.996799,18.94585,10.878,43690,18.07999,1004.509,0.001291428,10.23,1002.708,0,158.886787591,14.31,156.2429,8.741599,8.76563309524,1.80078
2021-11-01T16:50:26Z,13.16973,14.01274,0.2226267,77.10784,0,1156,9.702,18.37878,11.6228,43690,15.58387,1004.509,0.001113134,10.78,1002.708,0,158.613228884,14.11,156.2092,9.368799,9.33992166272,1.80078
2021-11-01T17:05:26Z,13.17527,14.04673,0.2737449,74.80528,0,1156,9.408,17.81623,11.5836,43690,19.16214,1005.329,0.001368724,10.98,1003.529,0,159.128404042,14.11,156.1375,9.8392,9.7638152071,1.80078
2021-11-01T17:20:25Z,13.18079,14.35151,0.3499008,73.34914,0,1156,9.133599,17.53834,11.9364,43690,24.49306,1005.329,0.001749504,11.94,1003.529,0,159.061431225,14.52,165.1297,10.0352,9.87550047337,1.80078
2021-11-01T17:35:26Z,13.18079,14.38537,0.2747199,72.67186,0,1156,9.8,17.43667,12.8576,43690,19.23039,1005.329,0.0013736,12.13,1003.529,0,157.975640784,14.45,153.0599,10.2312,10.2698199882,1.80078
2021-11-01T17:50:28Z,13.1869,14.38638,0.296433,69.89633,0,1156,11.4856,17.31241,13.3672,43690,20.75031,1005.329,0.001482165,12.76,1003.529,0,159.591126492,14.45,160.6125,10.9956,10.9101253905,1.80078
2021-11-01T18:05:28Z,13.18688,14.52485,0.2207587,71.5935,0,1156,11.4268,17.13619,13.7592,43690,15.45311,1005.528,0.001103793,13.76,1003.727,0,160.443563904,14.52,164.4446,11.5248,11.4352662249,1.80078
2021-11-01T18:20:29Z,13.19399,13.95426,0.1378626,74.41149,0,1156,9.9176,16.88542,14.0532,43690,9.650385,1005.528,0.0006893132,13.01,1003.727,0,162.881968863,14.12,163.6186,11.3876,11.355938432,1.80078
2021-11-01T18:35:30Z,13.20693,13.89439,0.136899,70.45905,0,1156,11.7012,16.48779,13.328,43690,9.582926,1005.528,0.0006844947,12.47,1003.727,0,162.335699455,14.03,160.8285,11.4268,11.4114911006,1.80078
2021-11-01T18:50:27Z,13.21282,14.09888,0.1417193,71.40917,0,1156,12.1128,16.11727,13.034,43690,9.920354,1005.528,0.0007085967,12.49,1003.727,0,161.534475245,14.06,161.1689,10.7212,10.6305499405,1.80078
2021-11-01T19:05:29Z,13.21835,14.40377,0.1961897,74.22084,0,1156,13.4848,15.92071,13.7592,43690,13.73328,1005.906,0.0009809486,12.92,1004.106,0,161.607535319,14.44,158.836,11.76,11.6506343077,1.80078
2021-11-01T19:20:31Z,13.21283,14.43765,0.3191095,74.4241,0,1156,10.8192,15.99527,14.4256,43690,22.33767,1005.906,0.001595548,14.19,1004.106,0,159.188119989,14.47,170.7415,12.2304,12.0985349053,1.80078
2021-11-01T19:35:27Z,13.21283,14.30215,0.2111329,78.21814,0,1156,11.3876,16.14212,14.1904,43690,14.7793,1005.906,0.001055665,12.47,1004.106,0,160.510460705,14.4,159.4132,12.299,12.3173166607,1.80078
2021-11-01T19:50:28Z,13.21835,14.26828,0.1701596,76.86312,0,1156,14.0924,16.04497,14.6804,43690,11.91117,1005.906,0.000850798,14.25,1004.106,0,161.684904394,14.3,163.4058,12.348,12.1986224615,1.80078
2021-11-01T20:05:31Z,13.22938,14.03115,0.1340067,76.55824,0,1156,12.2108,15.65187,14.798,43690,9.38047,1006.801,0.0006700336,14.8,1005.0,0,161.985081432,14.13,162.3235,12.5636,12.4992331361,1.80078
2021-11-01T20:20:29Z,13.24041,13.79402,0.09640771,77.67613,0,1156,12.8576,15.11642,15.1116,43690,6.74854,1006.801,0.0004820386,14.35,1005.0,0,162.682193768,13.83,158.6195,12.8478,12.7835166667,1.80078
2021-11-01T20:35:31Z,13.25738,13.6596,0.03085047,78.6601,0,1156,12.9556,14.6352,15.386,43690,2.159533,1006.801,0.0001542523,14.39,1005.0,0,163.732894066,13.69,167.7144,11.858,11.869713568,1.80078
2021-11-01T20:50:29Z,13.263,13.45943,0.02603386,79.71485,0,1156,14.3864,14.1811,15.484,43690,1.82237,1006.801,0.0001301693,14.95,1005.0,0,163.801983915,13.46,165.3668,13.1908,13.14495,1.80078
2021-11-01T21:05:33Z,13.27782,13.09976,0.00530361,82.37748,0,1156,11.6228,13.75409,15.7192,43690,0.3712527,1007.434,2.651805e-05,13.78,1005.633,0,165.173550423,13.17,168.2703,12.7204,12.6328378521,1.80078
2021-11-01T21:20:30Z,13.28905,12.99896,0.001446598,83.9715,0,1156,11.9364,13.3768,15.7976,43690,0.1012618,1007.434,7.232987e-06,13.45,1005.633,0,165.432941188,13.13,170.4384,12.887,12.7588999881,1.80078
2021-11-01T21:35:32Z,13.28905,13.03287,0.0,84.3104,0,1156,11.8776,13.0718,15.2096,43690,0.0,1007.434,0.0,13.92,1005.633,0,165.707076447,13.1,164.8807,12.6028,12.5578011716,1.80078
2021-11-01T21:50:34Z,13.29457,12.93121,0.0,84.78482,0,1156,11.4072,12.81424,14.5236,43690,0.0,1007.434,0.0,12.19,1005.633,0,165.413818551,13.0,169.5964,12.0736,11.9761798639,1.80078
2021-11-01T22:05:30Z,13.29469,12.93272,0.0,79.29742,0,1156,12.936,12.62673,14.21,43690,0.0,1008.04,0.0,13.8,1006.24,0,168.907588969,12.97,165.535,12.201,12.0664833214,1.80078
2021-11-01T22:20:32Z,13.30168,13.00474,0.0,79.71045,0,1156,11.662,12.5341,14.1316,43690,0.0,1008.04,0.0,12.82,1006.24,0,169.05069769,13.04,170.8901,11.7012,11.6705166488,1.80078
2021-11-01T22:35:35Z,13.30177,13.07539,0.0,69.85209,0,1156,10.78,12.44147,13.034,43690,0.0,1008.04,0.0,11.94,1006.24,0,174.339889396,13.18,170.4422,11.27,11.1729278047,1.80078
2021-11-01T22:50:35Z,13.30213,12.87227,0.0,55.38031,0,1156,8.9572,12.39402,14.2688,43690,0.0,1008.04,0.0,12.78,1006.24,0,178.951959298,13.01,192.0521,11.0936,11.1278129349,1.80078
2021-11-01T23:05:32Z,13.30786,12.53339,0.0,50.70319,0,1156,9.133599,12.23362,15.0528,43690,0.0,1010.064,0.0,13.62,1008.263,0,179.117500521,12.57,186.9988,10.3684,10.5663832321,1.80078
2021-11-01T23:20:36Z,13.3189,12.364,0.0,45.55159,0,1156,10.8584,11.97832,12.8772,43690,0.0,1010.064,0.0,10.68,1008.263,0,182.291452474,12.36,181.5366,9.4276,9.34815606509,1.80078
2021-11-01T23:35:35Z,13.31988,12.09494,0.0,47.55316,0,1156,9.1532,11.72529,12.5636,43690,0.0,1010.064,0.0,10.96,1008.263,0,181.523875972,12.2,179.6428,9.525599,9.34873313095,1.80078
2021-11-01T23:50:32Z,13.33199,11.86364,0.0,48.03318,0,1156,9.4276,11.51744,13.6808,43690,0.0,1010.064,0.0,12.11,1008.263,0,181.371682588,11.83,181.8536,10.1528,10.1419498512,1.80078
2021-11-02T00:05:36Z,13.33772,11.49151,0.0,51.15253,0,1156,8.447599,11.26666,13.1908,43690,0.0,1011.536,0.0,11.62,1009.735,0,182.724466478,11.66,183.0596,9.4276,9.33910986982,1.80078
2021-11-02T00:20:33Z,13.34325,11.49152,0.0,51.42373,0,1156,9.0356,11.01588,12.5832,43690,0.0,1011.536,0.0,12.58,1009.735,0,182.362781864,11.49,177.9091,9.133599,9.05449977976,1.80078
2021-11-02T00:35:37Z,13.34876,11.35593,0.0,47.05085,0,1156,10.584,10.81029,13.034,43690,0.0,1011.536,0.0,13.15,1009.735,0,180.030816033,11.36,177.6203,9.9764,9.99240461538,1.80078
2021-11-02T00:50:38Z,13.35429,10.64407,0.0,39.15254,0,1156,7.5264,10.58436,12.5832,43690,0.0,1011.536,0.0,9.04,1009.735,0,187.879532794,10.81,191.8685,7.467599,7.52524009467,1.80078
2021-11-02T01:05:34Z,13.35981,10.54237,0.0,41.83051,0,1156,7.663599,10.26807,11.0936,43690,0.0,1012.919,0.0,9.58,1011.119,0,190.823765591,10.64,176.4651,6.7913995,6.87843319643,1.80078
2021-11-02T01:20:36Z,13.36533,10.91525,0.0,48.23729,0,1156,12.2696,10.04215,14.3668,43690,0.0,1012.919,0.0,14.37,1011.119,0,183.805491355,10.98,176.802,8.6044,8.71886850888,1.80078
2021-11-02T01:35:38Z,13.36533,10.64407,0.0,42.64407,0,1156,12.2892,9.951778,13.0928,43690,0.0,1012.919,0.0,10.37,1011.119,0,182.089384515,10.75,175.8875,9.4864,9.54322826036,1.80078
2021-11-02T01:50:40Z,13.37085,10.27119,0.0,48.54237,0,1156,5.3508,9.83881,12.5636,43690,0.0,1012.919,0.0,11.47,1011.119,0,186.722741607,10.37,184.8888,7.761599,7.80045191716,1.80078
2021-11-02T02:05:35Z,13.37652,10.33898,0.0,45.28814,0,1156,8.231999,9.660328,13.2104,43690,0.0,1013.326,0.0,10.8,1011.525,0,184.981428647,10.41,187.6085,7.9674,7.83136652976,1.80078
2021-11-02T02:20:37Z,13.37743,10.33988,0.0,49.628,0,1156,6.8992,9.524777,12.6812,43690,0.0,1013.326,0.0,12.68,1011.525,0,182.52021223,10.51,174.4224,9.016,8.7957608284,1.80078
2021-11-02T02:35:37Z,13.38364,9.531635,0.0,43.90381,0,1156,6.174,9.346294,11.5836,43690,0.0,1013.326,0.0,8.939999,1011.525,0,189.083730199,9.8,190.7612,6.0368,6.37950994675,1.80078
2021-11-02T02:50:36Z,13.39136,9.065887,0.0,43.09796,0,1156,4.5276,9.079701,9.074799,43690,0.0,1013.326,0.0,8.33,1011.525,0,200.319729922,9.2,209.8633,4.8804,4.96912186982,1.80078
2021-11-02T03:05:37Z,13.40295,8.457031,0.0,45.33733,0,1156,4.3316,8.745334,7.742,43690,0.0,1015.45,0.0,5.606,1013.649,0,196.436471125,8.66,197.9041,4.4296,4.51542247337,1.80078
2021-11-02T03:20:38Z,13.41404,8.558826,0.0,44.9983,0,1156,4.9588,8.325115,6.781599,43690,0.0,1015.45,0.0,6.213,1013.649,0,196.02140427,8.689999,189.7667,4.2924,4.18326626627,1.80078
2021-11-02T03:35:38Z,13.42508,8.287548,0.0,44.59138,0,1156,3.1752,7.950077,8.3104,43690,0.0,1015.45,0.0,6.468,1013.649,0,195.286952394,8.42,201.3472,3.9788,4.03214910651,1.80078
2021-11-02T03:50:38Z,13.43613,8.117996,0.0,43.37063,0,1156,3.8808,7.61797,7.0756,43690,0.0,1015.45,0.0,5.076,1013.649,0,199.730920649,8.189999,197.7117,3.6064,3.6788852071,1.80078
2021-11-02T04:05:39Z,13.44298,7.783604,0.0,44.4262,0,1156,3.5084,7.290378,6.7424,43690,0.0,1015.791,0.0,3.508,1013.99,0,200.580783021,7.818,185.8606,3.1752,3.20025088757,1.80078
2021-11-02T04:20:39Z,13.44943,7.821502,0.0,44.09075,0,1156,3.6064,6.98312,5.0372,43690,0.0,1015.791,0.0,4.88,1013.99,0,202.197564197,7.788001,190.1864,3.2536,3.26206627219,1.80078
2021-11-02T04:35:40Z,13.45651,7.725147,0.0,45.96132,0,1156,3.6064,6.721042,4.8412,43690,0.0,1015.791,0.0,4.39,1013.99,0,202.590193875,7.726,230.2099,3.234,3.18308639053,1.80078
2021-11-02T04:50:41Z,13.46276,7.52369,0.0,47.55761,0,1156,2.7244,6.481564,4.7432,43690,0.0,1015.791,0.0,4.449,1013.99,0,197.462941372,7.524,190.3366,2.8224,2.90242366864,1.80078
2021-11-02T05:05:41Z,13.46831,7.28629,0.0,49.42333,0,1156,3.4496,6.264675,4.5864,43690,0.0,1016.116,0.0,3.783,1014.315,0,199.449929334,7.388001,193.1306,2.842,2.94139171598,1.80078
2021-11-02T05:20:41Z,13.47383,7.388054,0.0,48.54138,0,1156,2.156,6.068119,4.6844,43690,0.0,1016.116,0.0,3.959,1014.315,0,200.645217842,7.456,215.288,2.9596,2.97583668639,1.80078
2021-11-02T05:35:40Z,13.47383,7.455894,0.0,51.15332,0,1156,1.4308,5.89642,4.5864,43690,0.0,1016.116,0.0,4.273,1014.315,0,200.506016038,7.558001,188.4101,2.7636,2.71674556213,1.80078
2021-11-02T05:50:38Z,13.47936,7.32021,0.0,50.20352,0,1156,2.4304,5.787975,4.4688,43690,0.0,1016.116,0.0,4.292,1014.315,0,202.58620078,7.524,189.5902,2.6852,2.74353609467,1.80078
2021-11-02T06:05:38Z,13.48488,7.150604,0.0,50.37313,0,1156,2.6656,5.699864,3.9592,43690,0.0,1016.604,0.0,3.626,1014.803,0,209.40939155,7.151001,217.5759,2.6852,2.6466958574,1.80078
2021-11-02T06:20:39Z,13.48488,7.08276,0.0,50.57666,0,1156,3.9004,5.614014,4.41,43690,0.0,1016.604,0.0,3.43,1014.803,0,209.842195235,7.049,219.888,2.7048,2.68833136095,1.80078
2021-11-02T06:35:39Z,13.48488,6.74355,0.0,51.93351,0,1156,1.8816,5.52816,3.9004,43690,0.0,1016.604,0.0,3.43,1014.803,0,216.120229118,6.811,221.6221,2.7636,2.78157633136,1.80078
2021-11-02T06:50:44Z,13.4904,7.184525,0.0,53.45996,0,1156,1.6268,5.485237,3.7828,43690,0.0,1016.604,0.0,3.41,1014.803,0,212.873168839,7.151001,231.8097,2.7734,2.65545411765,1.80078
2021-11-02T07:05:44Z,13.4904,7.048839,0.0,53.73134,0,1156,1.6268,5.41972,4.5864,43690,0.0,1017.255,0.0,2.94,1015.455,0,208.17108314,7.151001,204.6669,2.5872,2.67951715917,1.80078
2021-11-02T07:20:43Z,13.4904,7.08276,0.0,55.25779,0,1156,1.5092,5.354198,4.5472,43690,0.0,1017.255,0.0,3.45,1015.455,0,206.574631282,7.286,210.8324,2.3912,2.4951147929,1.80078
2021-11-02T07:35:44Z,13.49593,6.947075,0.0,54.81682,0,1156,3.4104,5.290939,4.2728,43690,0.0,1017.255,0.0,3.332,1015.455,0,221.310170913,7.117,210.158,2.45,2.49221538462,1.80078